Weather reports worldwide

Advertisment
San Antonio, tx, United States of America (2074901): temperature & dewpoint: 06.07.2020 06:00:00 - 12.07.2020 06:00:00 (CDT)San Antonio, tx, United States of America (2074901): wind speed & gusts: 06.07.2020 06:00:00 - 12.07.2020 06:00:00 (CDT)San Antonio, tx, United States of America (2074901): wind direction: 06.07.2020 06:00:00 - 12.07.2020 06:00:00 (CDT)San Antonio, tx, United States of America (2074901): reduced air pressure: 06.07.2020 06:00:00 - 12.07.2020 06:00:00 (CDT)San Antonio, tx, United States of America (2074901): visibility: 06.07.2020 06:00:00 - 12.07.2020 06:00:00 (CDT)San Antonio, tx, United States of America (2074901): precipitation: 06.07.2020 06:00:00 - 12.07.2020 06:00:00 (CDT)
Date & Time tt [°C] td [°C] ff [km/h] ff [kn] fx [km/h] fx [kn] dd ppp [hPa] vv [km] rr [mm]
12.07.2020 06:00:00 23,3 23,3 9 5 - - SE 1013,5 16 -
12.07.2020 05:00:00 23,9 23,3 5 3 - - SE 1013,7 16 -
12.07.2020 04:00:00 25,0 23,3 5 3 - - SSE 1013,3 16 -
12.07.2020 03:00:00 25,0 23,3 5 3 - - SSE 1013,0 16 -
12.07.2020 02:00:00 26,1 23,9 9 5 - - SSE 1012,5 16 -
12.07.2020 01:00:00 27,2 23,9 15 8 - - S 1012,3 16 -
12.07.2020 00:00:00 28,3 24,4 11 6 - - SSE 1012,4 16 -
11.07.2020 23:00:00 30,0 24,4 21 11 - - SSE 1011,9 16 -
11.07.2020 22:00:00 32,2 22,2 22 12 - - S 1011,7 16 -
11.07.2020 21:00:00 32,8 18,3 11 6 - - SE 1011,2 16 -
11.07.2020 20:00:00 36,1 16,7 13 7 - - SE 1011,3 16 -
11.07.2020 19:00:00 37,8 16,7 16 9 - - SE 1011,0 16 -
11.07.2020 18:00:00 38,3 16,7 5 3 - - - 1011,4 16 -
11.07.2020 17:00:00 38,3 17,8 15 8 - - S 1012,1 16 -
11.07.2020 16:00:00 37,8 18,9 13 7 - - SSE 1012,8 16 -
11.07.2020 15:00:00 36,7 19,4 9 5 - - - 1013,6 16 -
11.07.2020 14:00:00 35,0 20,0 - - - - - 1014,5 16 -
11.07.2020 13:00:00 33,3 22,2 11 6 - - - 1015,1 16 -
11.07.2020 12:00:00 32,2 22,2 13 7 - - SSE 1015,6 16 -
11.07.2020 11:00:00 31,1 22,8 13 7 - - SSE 1016,1 16 -
11.07.2020 10:00:00 28,3 22,8 9 5 - - - 1015,9 16 -
11.07.2020 09:00:00 27,2 23,3 11 6 - - ESE 1016,2 16 -
11.07.2020 08:00:00 25,0 23,3 5 3 - - S 1016,0 16 -
11.07.2020 07:00:00 24,4 23,3 8 4 - - S 1015,3 16 -
11.07.2020 06:00:00 24,4 23,3 9 5 - - S 1014,4 16 -
11.07.2020 05:00:00 25,0 23,3 11 6 - - S 1013,8 16 -
11.07.2020 04:00:00 24,4 23,9 9 5 - - S 1014,2 16 -
11.07.2020 03:00:00 24,4 23,3 8 4 - - SSE 1014,2 16 -
11.07.2020 02:00:00 25,0 23,9 9 5 - - SSE 1014,2 16 -
11.07.2020 01:00:00 26,1 23,9 15 8 - - SSE 1014,2 16 -
11.07.2020 00:00:00 27,2 22,8 16 9 - - SSE 1014,3 16 -
10.07.2020 23:00:00 28,9 22,2 21 11 - - SSE 1014,2 16 -
10.07.2020 22:00:00 30,0 23,3 21 11 - - SSE 1013,7 16 -
10.07.2020 21:00:00 31,7 22,2 18 10 - - SE 1012,9 16 -
10.07.2020 20:00:00 33,3 22,2 24 13 - - SE 1012,2 16 -
10.07.2020 19:00:00 36,7 21,7 29 16 48 26 ESE 1011,2 16 -
10.07.2020 18:00:00 37,8 20,0 22 12 - - ESE 1011,7 16 -
10.07.2020 17:00:00 38,9 19,4 18 10 - - SSE 1012,4 16 -
10.07.2020 16:00:00 37,8 19,4 9 5 - - ESE 1012,6 16 -
10.07.2020 15:00:00 37,2 21,1 13 7 - - SE 1013,0 16 -
10.07.2020 14:00:00 35,6 22,8 16 9 - - SE 1013,4 16 -
10.07.2020 13:00:00 33,9 22,2 11 6 - - E 1014,0 16 -
10.07.2020 12:00:00 32,8 22,8 - - - - - 1014,2 16 -
10.07.2020 11:00:00 31,1 22,8 16 9 - - SSE 1014,4 16 -
10.07.2020 10:00:00 28,9 23,3 21 11 - - SSE 1014,7 16 -
10.07.2020 09:00:00 27,2 23,9 9 5 - - SSE 1014,6 16 -
10.07.2020 08:00:00 25,6 23,9 11 6 - - SE 1013,6 16 -
10.07.2020 07:00:00 25,0 23,9 0 0 - - N 1013,4 16 -
10.07.2020 06:00:00 24,4 23,9 8 4 - - SSE 1012,9 16 -
10.07.2020 05:00:00 23,9 23,9 8 4 - - SSE 1012,5 16 -
10.07.2020 04:00:00 25,6 23,9 9 5 - - SSE 1012,1 16 -
10.07.2020 03:00:00 26,1 23,9 18 10 - - S 1011,8 16 -
10.07.2020 02:00:00 26,1 23,9 15 8 - - SSE 1012,2 16 -
10.07.2020 01:00:00 26,7 22,8 21 11 - - SE 1012,2 16 -
10.07.2020 00:00:00 27,2 23,3 16 9 - - SE 1012,2 16 -
09.07.2020 23:00:00 28,3 23,3 15 8 - - SE 1011,4 16 -
09.07.2020 22:00:00 29,4 23,3 22 12 - - SSE 1010,2 16 -
09.07.2020 21:00:00 31,1 23,3 18 10 - - SSE 1009,3 16 -
09.07.2020 20:00:00 32,8 22,2 18 10 - - SSE 1008,7 16 -
09.07.2020 19:00:00 35,0 21,7 22 12 - - SE 1008,3 16 -
09.07.2020 18:00:00 35,0 20,6 22 12 - - SSE 1008,4 16 -
09.07.2020 17:00:00 35,6 20,0 24 13 - - SSE 1008,6 16 -
09.07.2020 16:00:00 36,1 20,6 15 8 - - SE 1008,8 16 -
09.07.2020 15:00:00 35,6 21,1 24 13 - - S 1009,4 16 -
09.07.2020 14:00:00 33,9 21,1 22 12 - - SE 1010,2 16 -
09.07.2020 13:00:00 33,3 21,7 24 13 - - SSE 1010,6 16 -
09.07.2020 12:00:00 32,2 22,2 21 11 - - SSE 1011,0 16 -
09.07.2020 11:00:00 31,1 22,8 18 10 - - SSE 1011,0 16 -
09.07.2020 10:00:00 28,9 22,8 15 8 - - S 1011,1 16 -
09.07.2020 09:00:00 27,2 23,3 21 11 - - SSE 1011,2 16 -
09.07.2020 08:00:00 26,1 23,9 11 6 - - SSE 1010,7 16 -
09.07.2020 07:00:00 25,6 23,9 11 6 - - SE 1010,5 15 -
09.07.2020 06:00:00 26,1 23,9 8 4 - - SE 1010,2 16 -
09.07.2020 05:00:00 26,1 23,9 13 7 - - SSE 1010,1 16 -
09.07.2020 04:00:00 26,7 23,3 16 9 - - S 1010,1 15 -
09.07.2020 03:00:00 26,1 23,9 16 9 - - S 1010,3 16 -
09.07.2020 02:00:00 26,1 23,9 13 7 - - SSE 1010,6 16 -
09.07.2020 01:00:00 26,7 24,4 16 9 - - SE 1010,6 16 -
09.07.2020 00:00:00 26,7 23,9 21 11 - - SSE 1010,5 16 -
08.07.2020 23:00:00 27,8 23,9 26 14 - - SE 1010,3 16 -
08.07.2020 22:00:00 29,4 23,9 22 12 - - SSE 1009,4 16 -
08.07.2020 21:00:00 30,6 23,9 26 14 - - SSE 1008,8 16 -
08.07.2020 20:00:00 32,8 22,8 18 10 - - SSE 1007,7 16 -
08.07.2020 19:00:00 35,0 20,0 24 13 - - SSE 1007,4 16 -
08.07.2020 18:00:00 36,1 19,4 13 7 - - S 1007,7 16 -
08.07.2020 17:00:00 36,7 18,9 21 11 - - S 1008,1 16 -
08.07.2020 16:00:00 36,1 20,0 18 10 50 27 SSE 1008,8 16 -
08.07.2020 15:00:00 35,6 21,1 11 6 - - - 1009,5 16 -
08.07.2020 14:00:00 33,3 22,2 11 6 - - SSE 1010,6 16 -
08.07.2020 13:00:00 33,3 21,7 16 9 - - S 1011,3 16 -
08.07.2020 12:00:00 32,2 22,2 18 10 - - SSE 1011,5 16 -
08.07.2020 11:00:00 30,0 22,8 8 4 - - - 1012,0 16 -
08.07.2020 10:00:00 28,9 22,8 18 10 - - SSE 1011,9 16 -
08.07.2020 09:00:00 27,8 23,9 22 12 - - SSE 1011,9 16 -
08.07.2020 08:00:00 26,7 23,9 15 8 - - SSE 1011,5 13 -
08.07.2020 07:00:00 25,6 24,4 9 5 - - SE 1011,3 11 -
08.07.2020 06:00:00 25,6 23,9 9 5 - - SE 1011,2 15 -
08.07.2020 05:00:00 26,1 23,9 13 7 - - SSE 1011,2 16 -
08.07.2020 04:00:00 26,1 23,9 15 8 - - SSE 1011,2 16 -
08.07.2020 03:00:00 26,1 24,4 13 7 - - SSE 1010,9 16 -
08.07.2020 02:00:00 26,7 24,4 13 7 - - SE 1011,1 10 -
08.07.2020 01:00:00 26,7 23,9 16 9 - - SSE 1011,3 16 -
08.07.2020 00:00:00 27,8 22,8 26 14 - - SE 1010,9 16 -
07.07.2020 23:00:00 28,9 22,8 21 11 - - SE 1010,4 16 -
07.07.2020 22:00:00 30,0 21,7 18 10 - - ESE 1010,0 16 -
07.07.2020 21:00:00 31,1 21,1 18 10 - - SE 1009,1 16 -
07.07.2020 20:00:00 32,8 20,0 16 9 - - SSE 1008,8 16 -
07.07.2020 19:00:00 35,0 18,9 21 11 - - S 1008,6 16 -
07.07.2020 18:00:00 35,0 20,6 24 13 - - SE 1008,7 16 -
07.07.2020 17:00:00 34,4 21,1 22 12 - - SSE 1008,5 16 -
07.07.2020 16:00:00 36,1 21,7 24 13 - - SSE 1009,5 16 -
07.07.2020 15:00:00 35,0 21,7 15 8 - - SSE 1010,4 16 -
07.07.2020 14:00:00 34,4 22,8 11 6 - - - 1011,5 16 -
07.07.2020 13:00:00 33,3 22,2 11 6 - - - 1012,3 16 -
07.07.2020 12:00:00 31,7 22,8 15 8 - - S 1012,8 16 -
07.07.2020 11:00:00 30,6 23,3 15 8 - - SSW 1013,0 16 -
07.07.2020 10:00:00 29,4 23,9 16 9 - - SSW 1012,7 16 -
07.07.2020 09:00:00 27,2 24,4 11 6 - - S 1012,7 16 -
07.07.2020 08:00:00 26,1 23,9 9 5 - - - 1012,4 16 -
07.07.2020 07:00:00 26,1 23,9 8 4 - - S 1012,0 16 -
07.07.2020 06:00:00 26,1 23,9 8 4 - - SSW 1011,8 16 -
07.07.2020 05:00:00 26,1 23,9 9 5 - - S 1011,5 16 -
07.07.2020 04:00:00 25,6 23,9 11 6 - - S 1011,7 16 -
07.07.2020 03:00:00 26,1 23,9 16 9 - - SSE 1011,2 16 -
07.07.2020 02:00:00 26,1 23,9 15 8 - - S 1011,5 16 -
07.07.2020 01:00:00 26,7 23,3 16 9 - - SE 1011,7 16 -
07.07.2020 00:00:00 27,2 22,8 16 9 - - SSE 1011,1 16 -
06.07.2020 23:00:00 28,9 22,8 26 14 - - SSE 1010,4 16 -
06.07.2020 22:00:00 30,6 23,9 24 13 - - SE 1009,4 16 -
06.07.2020 21:00:00 32,2 20,6 13 7 - - SE 1008,5 16 -
06.07.2020 20:00:00 33,3 20,0 16 9 - - SE 1008,1 16 -
06.07.2020 19:00:00 34,4 20,0 24 13 - - SSE 1008,0 16 -
06.07.2020 18:00:00 35,0 19,4 16 9 - - SE 1008,4 16 -
06.07.2020 17:00:00 35,0 20,0 16 9 - - SE 1009,0 16 -
06.07.2020 16:00:00 35,0 20,6 5 3 - - ENE 1009,8 16 -
06.07.2020 15:00:00 35,0 21,7 11 6 - - ESE 1010,3 16 -
06.07.2020 14:00:00 33,3 21,7 5 3 - - - 1010,9 16 -
06.07.2020 13:00:00 32,2 22,2 13 7 - - S 1011,4 16 -
06.07.2020 12:00:00 31,1 22,2 8 4 - - - 1011,7 16 -
06.07.2020 11:00:00 29,4 22,2 18 10 - - S 1011,2 16 -
06.07.2020 10:00:00 27,8 22,8 15 8 - - S 1011,0 16 -
06.07.2020 09:00:00 26,7 22,8 11 6 - - SE 1011,3 16 -
06.07.2020 08:00:00 25,0 23,3 8 4 - - NE 1011,2 16 -
06.07.2020 07:00:00 23,9 23,3 8 4 - - ESE 1010,0 16 -
06.07.2020 06:00:00 24,4 23,9 11 6 - - SSE 1009,4 16 0,0

tt = temperature
td = dewpoint
ff = wind speed
fx = gusts
dd = wind direction
ppp = reduced air pressure
vv = visibility
rr = precipitation

Next stations